N1BSO Weather Reports


time (UTC)temp
F
wind
direction
speed
knots
gust
knots
rain 1hr
in
rain 24hr
in
rain mn
in
humidity
%
barometer
mb
20260507231559 60 292 2.6 8.7 0.00 0.33 0.26 37 1005.5
20260507230104 61 226 2.6 8.7 0.00 0.33 0.26 37 1005.3
20260507224600 63 287 2.6 8.7 0.00 0.34 0.26 36 1005.3
20260507223056 64 308 2.6 7.0 0.00 0.34 0.26 36 1004.9
20260507221558 64 247 3.5 8.7 0.00 0.34 0.26 37 1004.9
20260507220055 65 317 1.7 7.0 0.00 0.34 0.26 35 1004.9
20260507214607 65 5 0.9 4.3 0.00 0.34 0.26 34 1004.8
20260507213058 65 15 1.7 7.8 0.00 0.34 0.26 32 1004.5
20260507211600 66 234 0.9 9.6 0.00 0.34 0.26 35 1004.6
20260507210105 67 259 2.6 7.0 0.00 0.34 0.26 35 1004.5
20260507204557 66 288 3.5 7.8 0.00 0.36 0.26 32 1004.5
20260507203110 66 301 0.9 7.8 0.00 0.36 0.26 32 1004.4
20260507201600 66 302 2.6 8.7 0.00 0.36 0.26 32 1004.4
20260507200107 66 276 4.3 9.6 0.00 0.36 0.26 36 1004.4
20260507194556 66 261 2.6 8.7 0.00 0.36 0.26 37 1004.5
20260507193058 65 309 1.7 9.6 0.00 0.36 0.26 41 1004.7
20260507191602 66 281 2.6 8.7 0.00 0.36 0.26 39 1004.8
20260507190105 66 262 1.7 8.7 0.00 0.36 0.26 45 1005.0
20260507184600 66 229 2.6 12.2 0.00 0.36 0.26 41 1005.1
20260507183101 65 161 2.6 8.7 0.00 0.36 0.26 43 1005.2
20260507181601 64 344 3.5 10.4 0.00 0.36 0.26 48 1005.3
20260507180054 64 246 0.9 12.2 0.00 0.36 0.26 50 1005.5
20260507174557 64 304 3.5 9.6 0.00 0.36 0.26 51 1005.5
20260507173105 64 326 3.5 12.2 0.00 0.36 0.26 53 1005.6
20260507171555 63 321 3.5 9.6 0.00 0.36 0.26 57 1005.7
20260507164600 62 218 0.9 7.0 0.00 0.36 0.26 57 1006.1
20260507163054 62 344 0.9 6.1 0.00 0.36 0.26 60 1006.1
20260507161556 62 249 2.6 7.0 0.00 0.36 0.26 59 1006.1
20260507160057 61 210 2.6 7.0 0.00 0.36 0.26 60 1006.6
20260507154558 61 185 1.7 6.1 0.00 0.36 0.26 62 1006.7
20260507153101 60 0 0.9 6.1 0.00 0.36 0.26 63 1006.9
20260507151554 59 209 0.9 4.3 0.00 0.36 0.26 66 1006.9
20260507150057 59 25 1.7 5.2 0.00 0.36 0.26 64 1007.2
20260507144556 58 0 0.0 2.6 0.00 0.36 0.26 65 1007.3
20260507143105 57 38 0.9 3.5 0.00 0.36 0.26 67 1007.3
20260507141555 55 91 0.9 6.1 0.00 0.36 0.26 77 1007.5
20260507140057 53 344 1.7 8.7 0.00 0.36 0.26 83 1007.6
20260507134600 52 332 1.7 3.5 0.00 0.36 0.26 89 1007.4
20260507133133 51 0 0.0 7.0 0.00 0.36 0.26 91 1007.7
20260507131556 51 326 0.9 4.3 0.00 0.36 0.26 94 1007.8
20260507130107 50 0 0.9 5.2 0.00 0.36 0.26 95 1007.5
20260507124557 50 319 0.9 2.6 0.01 0.36 0.26 95 1007.6
20260507123056 49 274 0.9 5.2 0.02 0.36 0.26 95 1008.0
20260507121611 49 0 0.0 1.7 0.02 0.36 0.26 96 1007.7
20260507120100 48 0 0.0 1.7 0.03 0.36 0.26 95 1007.6
20260507114635 48 0 0.0 2.6 0.02 0.35 0.25 95 1007.3
20260507113056 48 222 0.0 1.7 0.02 0.34 0.24 95 1007.4
20260507111602 48 0 0.0 0.0 0.03 0.34 0.24 95 1007.5
20260507110059 48 0 0.0 1.7 0.03 0.33 0.23 95 1007.3
20260507104554 48 0 0.0 2.6 0.03 0.33 0.23 95 1007.3
20260507103055 49 290 0.9 6.1 0.02 0.32 0.22 94 1007.6
20260507101613 49 304 0.0 2.6 0.02 0.31 0.21 95 1007.5
20260507094605 50 282 0.0 2.6 0.02 0.30 0.20 94 1006.9
20260507093055 50 262 0.0 3.5 0.03 0.30 0.20 94 1006.7
20260507091557 51 231 0.9 6.1 0.07 0.29 0.19 94 1007.0
20260507090054 52 331 1.7 8.7 0.13 0.29 0.19 94 1006.4
20260507084602 53 318 0.9 4.3 0.18 0.28 0.18 95 1006.1
20260507083057 54 0 0.0 2.6 0.17 0.27 0.17 95 1006.2
20260507081554 54 287 0.9 5.2 0.12 0.22 0.12 95 1006.2
20260507080117 55 298 0.9 6.1 0.06 0.16 0.06 95 1006.3
20260507074558 56 309 0.0 3.5 0.00 0.10 0.00 96 1005.8
20260507073105 56 0 0.0 0.9 0.00 0.10 0.00 96 1005.1
20260507071556 56 272 0.0 3.5 0.00 0.10 0.00 96 1005.2
20260507070056 56 0 0.0 0.9 0.00 0.10 0.00 96 1005.3
20260507064600 56 0 0.0 0.9 0.00 0.10 0.00 96 1005.3
20260507063105 56 0 0.0 1.7 0.00 0.10 0.00 96 1005.3
20260507061558 56 192 0.9 2.6 0.00 0.10 0.00 96 1005.6
20260507060056 56 0 0.9 3.5 0.00 0.10 0.00 96 1005.8
20260507054557 56 292 0.0 4.3 0.00 0.10 0.00 96 1005.7
20260507053108 56 259 0.0 3.5 0.00 0.10 0.00 96 1005.8
20260507051557 56 247 1.7 5.2 0.00 0.10 0.00 96 1006.0
20260507050058 56 319 0.0 7.0 0.00 0.10 0.00 96 1006.5
20260507044608 56 313 0.9 5.2 0.00 0.10 0.00 96 1006.1
20260507043058 56 217 1.7 6.1 0.00 0.10 0.00 96 1006.1
20260507041559 56 256 0.9 7.0 0.00 0.10 0.00 96 1006.2
20260507034559 56 290 0.9 9.6 0.00 0.10 0.10 95 1006.5
20260507033109 56 211 1.7 7.0 0.00 0.10 0.10 95 1006.5
20260507031559 56 232 2.6 9.6 0.00 0.10 0.10 95 1006.4
20260507024605 56 140 2.6 10.4 0.00 0.10 0.10 95 1005.9
20260507023054 56 167 3.5 8.7 0.00 0.10 0.10 95 1006.1
20260507021556 56 0 2.6 7.0 0.00 0.10 0.10 95 1006.2
20260507020112 56 180 3.5 9.6 0.00 0.10 0.10 95 1006.5
20260507014605 56 257 1.7 8.7 0.00 0.10 0.10 95 1006.6
20260507013058 56 165 2.6 8.7 0.01 0.10 0.10 95 1006.7
20260507011556 56 290 2.6 8.7 0.01 0.10 0.10 95 1006.9
20260507004602 57 259 3.5 9.6 0.02 0.10 0.10 95 1006.8
20260507003055 57 205 2.6 14.8 0.01 0.09 0.09 94 1006.9
20260507001556 57 304 4.3 17.4 0.03 0.09 0.09 95 1006.7
20260507000056 57 346 2.6 15.6 0.05 0.09 0.09 95 1006.9
20260506234555 57 178 3.5 8.7 0.05 0.08 0.08 94 1006.7
20260506233111 57 212 2.6 10.4 0.06 0.08 0.08 94 1006.8